EW4908 Weather Reports


time (UTC)temp
F
wind
direction
speed
knots
gust
knots
rain 1hr
in
rain 24hr
in
rain mn
in
humidity
%
barometer
mb
20260507210020 69 248 5.2 9.6 0.00 0.00 0.00 49 1020.9
20260507204519 69 281 5.2 10.4 0.00 0.00 0.00 47 1021.0
20260507203013 70 289 5.2 16.5 0.00 0.00 0.00 50 1021.1
20260507201515 69 282 6.1 15.6 0.00 0.00 0.00 52 1020.9
20260507200009 69 257 7.8 13.0 0.00 0.00 0.00 50 1021.0
20260507194507 68 250 6.1 10.4 0.00 0.00 0.00 55 1021.0
20260507193059 67 290 6.1 13.9 0.00 0.00 0.00 53 1021.1
20260507191530 66 360 7.0 17.4 0.00 0.00 0.00 55 1021.0
20260507190024 65 284 8.7 16.5 0.00 0.00 0.00 56 1021.0
20260507184520 66 298 9.6 15.6 0.00 0.00 0.00 57 1021.2
20260507183029 65 289 5.2 13.9 0.00 0.00 0.00 61 1021.3
20260507181511 65 261 7.8 13.0 0.00 0.00 0.00 60 1021.3
20260507180042 64 254 7.8 13.0 0.00 0.00 0.00 61 1021.2
20260507174536 64 231 5.2 12.2 0.00 0.00 0.00 64 1021.2
20260507173103 63 260 8.7 12.2 0.00 0.00 0.00 62 1021.3
20260507171612 62 252 8.7 13.0 0.00 0.00 0.00 66 1021.3
20260507170026 62 211 7.0 12.2 0.00 0.00 0.00 66 1021.3
20260507164521 61 246 6.1 13.0 0.00 0.00 0.00 69 1021.4
20260507163047 60 263 7.0 11.3 0.00 0.00 0.00 68 1021.4
20260507161545 60 213 7.0 11.3 0.00 0.00 0.00 71 1021.4
20260507160006 59 252 6.1 11.3 0.00 0.00 0.00 71 1021.8
20260507154502 58 224 6.1 10.4 0.00 0.00 0.00 74 1021.7
20260507153057 57 254 6.1 11.3 0.00 0.00 0.00 77 1021.7
20260507151554 56 258 7.0 12.2 0.00 0.00 0.00 79 1021.5
20260507150143 55 224 8.7 12.2 0.00 0.00 0.00 80 1021.4
20260507144524 54 248 6.1 12.2 0.00 0.00 0.00 81 1021.3
20260507143018 53 360 7.0 11.3 0.00 0.00 0.00 82 1021.2
20260507141511 52 261 9.6 13.9 0.00 0.00 0.00 82 1020.9
20260507140016 51 300 9.6 13.0 0.00 0.00 0.00 84 1020.8
20260507140014 51 251 9.6 13.0 0.00 0.00 0.00 84 1020.8
20260507134556 50 261 9.6 13.9 0.00 0.00 0.00 86 1020.8
20260507133056 49 278 8.7 10.4 0.00 0.00 0.00 87 1020.9
20260507131525 48 286 7.0 9.6 0.00 0.00 0.00 89 1020.8
20260507130017 48 242 6.1 8.7 0.00 0.00 0.00 89 1020.6
20260507124550 48 360 7.0 11.3 0.00 0.00 0.00 88 1020.5
20260507123043 47 252 8.7 12.2 0.00 0.00 0.00 87 1019.9
20260507121509 48 216 9.6 11.3 0.00 0.00 0.00 86 1020.0
20260507120007 48 247 9.6 12.2 0.00 0.00 0.00 85 1019.9
20260507113030 48 269 7.0 9.6 0.00 0.00 0.00 85 1020.0
20260507111559 49 257 6.1 9.6 0.00 0.00 0.00 83 1020.0
20260507110116 49 265 5.2 10.4 0.00 0.00 0.00 82 1019.9
20260507104525 50 249 7.0 12.2 0.00 0.00 0.00 81 1019.6
20260507103023 50 258 7.0 9.6 0.00 0.00 0.00 81 1019.6
20260507101519 51 257 7.8 12.2 0.00 0.00 0.00 78 1019.6
20260507100013 51 250 8.7 13.0 0.00 0.00 0.00 77 1019.4
20260507094510 51 265 6.1 10.4 0.00 0.00 0.00 74 1019.6
20260507093008 52 281 8.7 11.3 0.00 0.00 0.00 70 1019.3
20260507091640 53 257 7.0 13.0 0.00 0.00 0.00 67 1019.3
20260507090106 53 254 10.4 13.9 0.00 0.00 0.00 66 1019.1
20260507084558 53 263 7.8 9.6 0.00 0.00 0.00 66 1019.2
20260507083056 53 360 7.0 11.3 0.00 0.00 0.00 65 1019.3
20260507081524 53 360 8.7 12.2 0.00 0.00 0.00 65 1019.0
20260507080027 54 282 8.7 13.0 0.00 0.00 0.00 63 1018.8
20260507074553 54 281 8.7 12.2 0.00 0.00 0.00 63 1018.8
20260507073050 55 301 9.6 13.0 0.00 0.00 0.00 62 1018.6
20260507071544 54 267 8.7 11.3 0.00 0.00 0.00 62 1018.6
20260507070057 56 275 7.0 12.2 0.00 0.00 0.00 59 1018.5
20260507064540 58 261 9.6 17.4 0.00 0.00 0.00 58 1018.3
20260507063040 57 360 9.6 16.5 0.00 0.00 0.00 60 1018.4
20260507061513 56 282 8.7 13.0 0.00 0.00 0.00 61 1018.3
20260507060009 55 259 6.1 8.7 0.00 0.00 0.00 61 1018.2
20260507054546 55 360 7.0 9.6 0.00 0.00 0.00 60 1018.1
20260507053048 57 260 4.3 7.8 0.00 0.00 0.00 54 1018.0
20260507051509 58 270 7.0 12.2 0.00 0.00 0.00 51 1017.8
20260507050006 58 286 8.7 12.2 0.00 0.00 0.00 50 1017.6
20260507044536 58 287 7.0 9.6 0.00 0.00 0.00 50 1017.6
20260507043035 59 273 5.2 7.8 0.00 0.00 0.00 47 1017.5
20260507041533 62 265 7.0 11.3 0.00 0.00 0.00 43 1017.2
20260507040033 63 283 7.8 13.9 0.00 0.00 0.00 40 1017.1
20260507034550 64 295 8.7 16.5 0.00 0.00 0.00 37 1016.9
20260507033034 65 292 9.6 15.6 0.00 0.00 0.00 35 1016.7
20260507031559 67 290 8.7 13.9 0.00 0.00 0.00 34 1016.6
20260507030059 69 292 7.8 12.2 0.00 0.00 0.00 34 1016.4
20260507024554 69 279 9.6 15.6 0.00 0.00 0.00 36 1016.3
20260507023044 70 286 9.6 13.9 0.00 0.00 0.00 38 1016.2
20260507021548 71 360 11.3 19.1 0.00 0.00 0.00 36 1016.3
20260507020014 72 297 13.0 20.0 0.00 0.00 0.00 33 1016.3
20260507014521 72 285 14.8 20.9 0.00 0.00 0.00 33 1016.2
20260507013046 72 279 10.4 18.2 0.00 0.00 0.00 45 1016.1
20260507011548 71 265 7.8 12.2 0.00 0.00 0.00 49 1016.0
20260507010059 72 234 8.7 12.2 0.00 0.00 0.00 47 1016.2
20260507004543 72 245 7.8 13.0 0.00 0.00 0.00 45 1016.2
20260507003041 73 237 7.8 12.2 0.00 0.00 0.00 46 1016.3
20260507001546 73 281 7.8 12.2 0.00 0.00 0.00 46 1016.3
20260507000039 74 260 9.6 13.9 0.00 0.00 0.00 46 1016.2
20260506234538 74 260 10.4 16.5 0.00 0.00 0.00 45 1016.2
20260506233038 76 233 12.2 20.0 0.00 0.00 0.00 45 1016.3
20260506233004 76 360 11.3 20.0 0.00 0.00 0.00 44 1016.3
20260506231538 76 242 11.3 18.2 0.00 0.00 0.00 43 1016.4
20260506230032 77 267 9.6 17.4 0.00 0.00 0.00 45 1016.4
20260506224531 77 290 8.7 13.9 0.00 0.00 0.00 45 1016.5
20260506223026 76 275 7.8 13.0 0.00 0.00 0.00 47 1016.7
20260506221525 77 257 10.4 16.5 0.00 0.00 0.00 45 1017.0
20260506220024 75 255 8.7 17.4 0.00 0.00 0.00 47 1017.2
20260506214522 75 254 8.7 13.9 0.00 0.00 0.00 48 1017.3
20260506213011 76 233 8.7 15.6 0.00 0.00 0.00 48 1017.5
20260506211607 77 247 7.8 16.5 0.00 0.00 0.00 45 1017.7